Location: Newark
(42.8481°N, 0.4872°E)
Time: 03:25:02
(UTC+00:00)

SR - Pass Details

Date: 04 November 2020
Orbit: 579 x 876 km, 66.7° (Epoch: 26 November)

Event Time Altitude Azimuth Distance (km) Brightness Sun altitude
Rises 07:01:08 0° 343° (NNW) 3,035 ? 3.3°
Reaches altitude 10° 07:05:36 10° 22° (NNE) 2,205 ? 4.1°
Maximum altitude 07:06:44 11° 35° (NE) 2,180 ? 4.2°
Drops below altitude 10° 07:07:54 10° 48° (NE) 2,249 ? 4.4°
Sets 07:12:39 0° 86° (E) 3,263 ? 5.2°
